Location: *
(11.7485°N, 79.7483°E)
Time: 01:36:50
(UTC+00:00)

Cosmos 1300 - Pass Details

Date: 22 January 2021
Orbit: 511 x 513 km, 82.5° (Epoch: 05 March)

Event Time Altitude Azimuth Distance (km) Brightness Sun altitude
Rises 00:31:09 0° 176° (S) 2,610 6.6 -8.9°
Reaches altitude 10° 00:33:18 10° 171° (S) 1,726 5.7 -8.4°
Maximum altitude 00:37:00 54° 94° (E) 622 3.6 -7.5°
Drops below altitude 10° 00:40:42 10° 16° (NNE) 1,727 5.3 -6.7°
Sets 00:42:51 0° 11° (N) 2,613 6.2 -6.2°
